Powrót do katalogu

SL-12 R/B

AUX MOTOR

AktywnyHEO
NORAD 15265·ROCKET BODY·🇷🇺 Russia

Wystrzelony Sep 4, 1984 z Baikonur Cosmodrome

Loading…

Następne Przeloty (najbliższe 24 godziny)

TLE

ŚwieżeSource: Space-Track

Epoka: Sep 14, 2026, 14:19 UTC

1 15265U 84095G   26257.59670935  .00030655  00000-0  25562-2 0  9992
2 15265  51.9284 171.3923 4402174  53.5504 339.5523  6.69299805691583

Śledź SL-12 R/B w czasie rzeczywistym z AllMySat

Download on the App Store